Location: Dover
(48.8500°N, 53.9833°W)
Time: 16:56:19
(UTC+00:00)

BREEZE M DEB (TANK) - Pass Details

Date: 14 November 2025
Orbit: 330 x 15646 km, 49.4° (Epoch: 09 December)

Event Time Altitude Azimuth Distance (km) Brightness Sun altitude
Rises 20:12:41 0° 251° (WSW) 13,864 12.3 -3.2°
Reaches altitude 10° 20:28:16 10° 254° (WSW) 9,778 10.5 -5.6°
Maximum altitude 20:52:27 89° 174° (S) 1,556 4.6 -9.3°
Enters shadow 20:57:19 13° 80° (E) 2,283 4.8 -10.1°
